Regional Weather Roundup
Issued by NWS

Home | Current Version | Previous Version | Text Only | Print | Product List | Glossary On
Versions: 1 2 3 4 5 6 7 8 9 10 11 12 13 14 15 16 17 18 19 20 21 22 23 24 25 26 27 28 29 30 31 32 33 34 35 36 37 38 39 40 41 42 43 44 45 46 47 48 49 50
000
ASUS43 KFSD 261110
RWRSD

WEATHER ROUNDUP FOR SOUTH DAKOTA
NATIONAL WEATHER SERVICE SIOUX FALLS SD
600 AM CDT SUN APR 26 2015

NOTE: "FAIR" INDICATES FEW OR NO CLOUDS BELOW 12,000 FEET WITH NO
SIGNIFICANT WEATHER AND/OR OBSTRUCTIONS TO VISIBILITY.


SDZ001>005-009-010-012>017-261200-
NORTHWEST AND NORTH CENTRAL SOUTH DAKOTA

CITY           SKY/WX    TMP DP  RH WIND       PRES   REMARKS
BUFFALO          N/A     43  40  89 N7        29.88R
FAITH            N/A     48  44  86 E5        29.92R
MOBRIDGE       CLOUDY    51  43  74 SE10      29.94R
$$

SDZ012>016-024>037-041>051-057-063-072>074-261200-
SOUTHWEST AND SOUTH CENTRAL SOUTH DAKOTA

CITY           SKY/WX    TMP DP  RH WIND       PRES   REMARKS
RAPID CTY ARPT CLOUDY    43  41  93 N16       29.90R
PIERRE         CLOUDY    48  42  80 SE13      29.94S
CUSTER         CLOUDY    41  39  93 E7        29.89S FOG
ELLSWORTH AFB  DRIZZLE   42  42 100 N16       29.90R FOG
PHILIP         CLOUDY    49  46  90 E8        29.90R
PINE RIDGE     CLOUDY    49  45  86 E7        29.87S
SPEARFISH      CLOUDY    39  39 100 W3        29.95R FOG
WINNER         CLOUDY    47  42  83 E3        29.94R
$$

SDZ004>011-016>023-039-040-261200-
NORTHEAST SOUTH DAKOTA

CITY           SKY/WX    TMP DP  RH WIND       PRES   REMARKS
ABERDEEN       CLOUDY    47  40  76 E5        30.02R
WATERTOWN      PTCLDY    38  33  82 CALM      30.03R
BROOKINGS      PTCLDY    32  30  93 NW3       30.04R
SISSETON         N/A     33  30  88 SE7       30.05R WCI  27
$$

SDZ017-020-022-023-036>040-048>070-261200-
SOUTHEAST SOUTH DAKOTA

CITY           SKY/WX    TMP DP  RH WIND       PRES   REMARKS
SIOUX FALLS    PTCLDY    37  35  92 NE3       30.02R
HURON          CLEAR     35  33  92 NE3       30.01R
CHAMBERLAIN    CLOUDY    44  40  87 E5        29.97R
MITCHELL       CLEAR     37  35  92 NE6       30.01R FOG
YANKTON        CLOUDY    45  37  76 NE6       30.00R
$$

ABBREVIATIONS USED IN REMARKS
   TC - TEMPERATURE IN CELSIUS
  WCI - WIND CHILL INDEX
   HX - HEAT INDEX
  VSB - VISIBILITY



USA.gov is the U.S. government's official web portal to all federal, state and local government web resources and services.